Rankin Inlet, Nunavut

8:27 AM CDT on July 27, 2017 (GMT -0500)
Rankin Inlet

Weather History for CYRT - January, 2013

Change the Weather History Date:

Sunday, January 27, 2013

  Actual Average Record
Temperature  
Mean Temperature -28 °F -  
Max Temperature -23 °F -13 °F 8 °F (2000)
Min Temperature -32 °F -25 °F -41 °F (1997)
Degree Days  
Heating Degree Days 94    
Moisture  
Dew Point -37 °F    
Average Humidity 65    
Maximum Humidity 69    
Minimum Humidity 48    
Precipitation  
Precipitation 0.00 in - - ()
Sea Level Pressure  
Sea Level Pressure 30.02 in    
Wind  
Wind Speed 12 mph ()    
Max Wind Speed 18 mph    
Max Gust Speed -    
Visibility 12.1 miles    
Events Fog , Snow    
Averages and records for this station are not official NWS values.
T = Trace of Precipitation, MM = Missing Value Source: Averaged Metar Reports

Daily Weather History Graph

Daily Weather History Graph

Search for Another Location

Airport or City:

Trip Planner

Search our weather history database for the weather conditions in past years. The results will help you decide how hot, cold, wet, or windy it might be!

Date:

Astronomy

Jan. 27, 2013 Rise Set
Actual Time 8:51 AM CST 3:51 PM CST
Civil Twilight 7:56 AM CST 4:47 PM CST
Nautical Twilight 6:59 AM CST 5:44 PM CST
Astronomical Twilight 6:05 AM CST 6:37 PM CST
Moon 5:23 PM CST 8:13 AM CST
Length of Visible Light 8h 50m
Length of Day
6h 59m
Full, 100% of the Moon is Illuminated
Jan 27
Full
Feb 3
Last Quarter
Feb 10
New
Feb 17
First Quarter
Feb 25
Full

Hourly Weather History & Observations

Time (CST) Temp. Windchill Dew Point Humidity Pressure Visibility Wind Dir Wind Speed Gust Speed Precip Events Conditions
12:00 AM -29 °F - -37 °F 50% 29.97 in 10 mi North 12.7 mph - - Snow Snow
12:00 AM -29.2 °F -55.8 °F -36.4 °F 68% 29.97 in 10.0 mi North 13.8 mph - N/A   Mostly Cloudy
1:00 AM -29.2 °F -56.8 °F -36.4 °F 68% 29.97 in 12.0 mi North 15.0 mph - N/A   Mostly Cloudy
2:00 AM -29.2 °F -54.8 °F -38.2 °F 62% 29.98 in 12.0 mi North 12.7 mph - N/A   Mostly Cloudy
3:00 AM -31.0 °F -57.1 °F -38.2 °F 68% 29.98 in 15.0 mi North 12.7 mph - N/A   Scattered Clouds
4:00 AM -32.8 °F -60.4 °F -40.0 °F 68% 29.98 in 15.0 mi North 13.8 mph - N/A   Partly Cloudy
5:00 AM -32.8 °F -61.4 °F -40.0 °F 68% 29.99 in 15.0 mi North 15.0 mph - N/A   Partly Cloudy
6:00 AM -32 °F - -40 °F 48% 30.00 in 15 mi NNW 13.8 mph - - Snow Snow
6:00 AM -32.8 °F -60.4 °F -40.0 °F 68% 30.00 in 15.0 mi NNW 13.8 mph - N/A   Partly Cloudy
7:00 AM -32.8 °F -60.4 °F -40.0 °F 68% 30.00 in 15.0 mi North 13.8 mph - N/A   Partly Cloudy
8:00 AM -32.8 °F -61.4 °F -40.0 °F 68% 29.99 in 15.0 mi North 15.0 mph - N/A   Partly Cloudy
9:00 AM -32.8 °F -60.4 °F -40.0 °F 68% 30.00 in 15.0 mi North 13.8 mph - N/A   Partly Cloudy
10:00 AM -31.0 °F -61.6 °F -38.2 °F 68% 30.01 in 12.0 mi North 18.4 mph - N/A Snow Low Drifting Snow
11:00 AM -29.2 °F -56.8 °F -38.2 °F 62% 30.02 in 12.0 mi North 15.0 mph - N/A Snow Low Drifting Snow
12:00 PM -29 °F - -37 °F 50% 30.03 in 12 mi North 12.7 mph - - Snow Snow
12:00 PM -29.2 °F -54.8 °F -36.4 °F 68% 30.03 in 12.0 mi North 12.7 mph - N/A Snow Low Drifting Snow
1:00 PM -27.4 °F -51.4 °F -36.4 °F 62% 30.04 in 15.0 mi NNW 11.5 mph - N/A   Partly Cloudy
2:00 PM -27.4 °F -53.5 °F -34.6 °F 69% 30.04 in 15.0 mi North 13.8 mph - N/A   Scattered Clouds
3:00 PM -27.4 °F -52.5 °F -34.6 °F 69% 30.04 in 15.0 mi North 12.7 mph - N/A   Scattered Clouds
4:00 PM -27.4 °F -53.5 °F -36.4 °F 62% 30.05 in 15.0 mi North 13.8 mph - N/A   Partly Cloudy
5:00 PM -29.2 °F -54.8 °F -36.4 °F 68% 30.06 in 15.0 mi North 12.7 mph - N/A   Partly Cloudy
6:00 PM -28 °F - -36 °F 49% 30.07 in 15 mi North 10.4 mph - - Snow Snow
6:00 PM -29.2 °F -53.7 °F -36.4 °F 68% 30.07 in 15.0 mi NNW 11.5 mph - N/A   Partly Cloudy
7:00 PM -27.4 °F -51.4 °F -34.6 °F 69% 30.07 in 15.0 mi North 11.5 mph - N/A   Partly Cloudy
8:00 PM -27.4 °F -51.4 °F -34.6 °F 69% 30.07 in 15.0 mi North 11.5 mph - N/A   Partly Cloudy
9:00 PM -27.4 °F -50.3 °F -34.6 °F 69% 30.08 in 15.0 mi North 10.4 mph - N/A   Partly Cloudy
9:53 PM - - - N/A% - 0.5 mi NNW 12.7 mph - N/A Fog Light Freezing Fog
10:00 PM -25.6 °F -50.2 °F -32.8 °F 69% 30.08 in 0.5 mi NNW 12.7 mph - N/A Fog Light Freezing Fog
10:21 PM - - - N/A% - 3.0 mi NNW 10.4 mph - N/A   Mostly Cloudy
10:51 PM - - - N/A% - 5.0 mi NNW 11.5 mph - N/A   Mostly Cloudy
11:00 PM -23.8 °F -49.8 °F -31.0 °F 69% 30.08 in 5.0 mi NNW 15.0 mph - N/A   Mostly Cloudy